Regional Weather Roundup
Issued by NWS

Home | Current Version | Previous Version | Graphics & Text | Print | Product List | Glossary On
Versions: 1 2 3 4 5 6 7 8 9 10 11 12 13 14 15 16 17 18 19 20 21 22 23 24 25 26 27 28 29 30 31 32 33 34 35 36 37 38 39 40 41 42 43 44 45 46 47 48 49 50
000
ASUS43 KDTX 281110
RWRMI
MICHIGAN HOURLY REGIONAL WEATHER ROUNDUP
NATIONAL WEATHER SERVICE DETROIT/PONTIAC MI
700 AM EDT WED SEP 28 2016

NOTE: "FAIR" INDICATES FEW OR NO CLOUDS BELOW 12,000 FEET WITH NO
SIGNIFICANT WEATHER AND/OR OBSTRUCTION TO VISIBILITY.

MIZ047>049-052>055-059>063-066>070-074>076-081>083-281200-
SOUTHEAST LOWER MICHIGAN

CITY           SKY/WX    TMP DP  RH WIND       PRES   REMARKS
ADRIAN         CLOUDY    51  47  86 NE6       29.81F
ALMA           CLOUDY    47  47 100 CALM      29.86S FOG
ANN ARBOR      PTCLDY    52  46  80 NE6       29.82R
BAD AXE        CLOUDY    48  46  93 CALM      29.88S
CARO           PTCLDY    45  44  97 CALM      29.86S
DETROIT CITY   PTCLDY    56  50  80 N3        29.82F
DETROIT        CLOUDY    55  48  77 N6        29.83S
FLINT          PTCLDY    48  45  89 E6        29.85R
GROSSE ILE     CLOUDY    57  43  58 E6        29.80S
HILLSDALE      PTCLDY    48  43  81 E6        29.78S
HOWELL         MOCLDY    49  46  87 E5        29.83S

CITY           SKY/WX    TMP DP  RH WIND       PRES   REMARKS
JACKSON        CLOUDY    50  48  93 NE9       29.80F
LAMBERTVILLE   CLOUDY    51  47  87 CALM      29.81F
LANSING        CLOUDY    50  45  83 N6        29.84R
LAPEER         FAIR      46  45  97 CALM      29.86S
MASON          PTCLDY    49  45  85 CALM      29.82S
MONROE         CLOUDY    51  48  90 W8        29.81R
MT. CLEMENS    CLOUDY    52  47  84 N6        29.81S
PONTIAC        MOCLDY    52  46  80 NE5       29.83S
PORT HURON     MOCLDY    50  48  93 CALM      29.85S
TRI CITIES     MOCLDY    47  47 100 NE5       29.88R
MIDLAND        FAIR      48  48 100 CALM      29.87R FOG
TROY           CLOUDY    56  44  64 NE6       29.85S
SAGINAW HB     CLOUDY    46  45  93 CALM      29.86R
$$
MIZ043>046-050>051-056>058-064>065-071>073-077>080-281200-
SOUTHWEST LOWER MICHIGAN

CITY           SKY/WX    TMP DP  RH WIND       PRES   REMARKS
BATTLE CREEK   CLOUDY    51  47  86 NE8       29.81S
BENTON HARBOR  CLOUDY    53  49  86 CALM      29.78S
BIG RAPIDS     MIX PCPN  51  51  97 SE6       29.85R
COLDWATER      PTCLDY    50  46  85 NE6       29.79S
FREMONT        RAIN      50  50  99 S7        29.84R
HOLLAND        CLOUDY    53  51  93 E8        29.82F
GRAND RAPIDS   LGT RAIN  52  49  89 N5        29.84S
IONIA          CLOUDY    49  47  95 N5        29.83S
KALAMAZOO      CLOUDY    53  46  77 N5        29.81S
LUDINGTON      DRIZZLE   48  48 100 E5        29.81R
MARSHALL       MOCLDY    51  47  84 NE3       29.79F
MOUNT PLEASANT CLOUDY    50  49  96 CALM      29.86R
MUSKEGON       LGT RAIN  53  51  93 E8        29.84S
SOUTH HAVEN    LGT RAIN  54  52  95 NE7       29.80S
$$
MIZ016>042-281200-
NORTHERN LOWER MICHIGAN

CITY           SKY/WX    TMP DP  RH WIND       PRES   REMARKS
ALPENA         CLOUDY    50  49  96 CALM      29.91R
BEAVER ISLAND  PTCLDY    48  48  99 CALM      29.89R
BELLAIRE       CLOUDY    49  48  95 CALM      29.88R
CADILLAC       CLOUDY    48  47  96 SE8       29.84R
CHARLEVOIX     CLOUDY    51  50  99 E3        29.90R
FRANKFORT      PTCLDY    50  47  91 E5        29.83R
GAYLORD        LGT RAIN  49  46  90 NE5       29.89R
GRAYLING       CLOUDY    49  49  99 E5        29.89R
HARBOR SPRINGS CLOUDY    48  47  97 NE6       29.89R
HOUGHTON LAKE  CLOUDY    49  48  97 SE7       29.88R
MANISTEE       CLOUDY    48  48 100 E6        29.83R
OSCODA         CLOUDY    48  48  99 CALM      29.89R
PELLSTON       CLOUDY    45  43  93 CALM      29.91R
ROGERS CITY    CLOUDY    50  48  93 CALM      29.92R
TRAVERSE CITY  CLOUDY    51  48  89 E5        29.85R
$$
MIZ007>008-015-281200-
EASTERN UPPER MICHIGAN

CITY           SKY/WX    TMP DP  RH WIND       PRES   REMARKS
KINROSS        CLOUDY    51  51 100 NE8       29.92R
MACKINAC ISLAN CLOUDY    52  52 100 SE6       29.90R
NEWBERRY       FOG       46  45  97 CALM      29.92R VSB 1
S. S. MARIE    CLOUDY    54  52  93 NE3       29.92R
MUNISING         N/A     50  48  93 VRB3      29.92R
$$
MIZ004>006-011>014-085-281200-
CENTRAL UPPER MICHIGAN

CITY           SKY/WX    TMP DP  RH WIND       PRES   REMARKS
MANISTIQUE     CLOUDY    51  49  92 NE6       29.88R
ESCANABA       CLOUDY    49  48  97 N5        29.87R
MENOMINEE      MOCLDY    46  45  96 N7        29.85R
$$
MIZ001>003-009>011-084-281200-
WESTERN UPPER MICHIGAN

CITY           SKY/WX    TMP DP  RH WIND       PRES   REMARKS
IRON MOUNTAIN  CLOUDY    50  47  89 NE3       29.87R
HOUGHTON       MOCLDY    52  48  86 NE9       29.95R
COPPER HARBOR    N/A     57  54  89 VRB6G18   29.96R
IRONWOOD       LGT RAIN  53  52  96 NE8G17    29.96R FOG
$$

ABBREVIATIONS USED IN REMARKS
   TC - TEMPERATURE IN CELSIUS
  WCI - WIND CHILL INDEX
   HX - HEAT INDEX
  VSB - VISIBILITY





USA.gov is the U.S. government's official web portal to all federal, state and local government web resources and services.